Total_Precipitation_Accumulation
0.71 1.17 1.39 1.33 1.36 1.29 1.05 0.96 0.87 0.74 0.70 0.72 0.66 0.62 0.62 0.62 0.62 0.55 0.43 0.34 0.30 0.25 0.18 0.17 0.18 0.20 0.22 0.25 0.31 0.37 0.42 0.57 0.71 0.80 0.92 1.11 1.29 1.46 1.62 1.74 1.63 1.49 1.45 1.61
0.76 0.99 0.80 0.75 0.90 0.91 0.90 0.90 0.79 0.67 0.55 0.52 0.50 0.52 0.53 0.50 0.50 0.43 0.36 0.28 0.23 0.17 0.13 0.10 0.08 0.11 0.13 0.15 0.20 0.26 0.33 0.44 0.56 0.71 0.94 1.16 1.46 1.55 1.64 1.78 1.82 1.76 1.69 1.84
0.78 0.71 0.49 0.57 0.73 0.73 0.70 0.75 0.69 0.60 0.50 0.45 0.41 0.46 0.47 0.44 0.42 0.38 0.30 0.24 0.18 0.14 0.11 0.07 0.06 0.07 0.11 0.11 0.13 0.19 0.30 0.45 0.67 0.89 1.20 1.50 1.73 1.81 1.86 1.82 1.88 1.97 2.02 2.08
0.74 0.54 0.46 0.53 0.59 0.60 0.67 0.50 0.45 0.41 0.44 0.44 0.40 0.56 0.42 0.36 0.37 0.33 0.30 0.29 0.22 0.16 0.11 0.09 0.08 0.08 0.09 0.12 0.16 0.27 0.43 0.63 0.90 1.24 1.58 1.82 2.05 2.15 2.00 1.98 2.02 2.03 1.98 2.01
0.62 0.49 0.45 0.49 0.40 0.37 0.44 0.37 0.44 0.41 0.38 0.33 0.26 0.35 0.34 0.32 0.40 0.33 0.26 0.27 0.28 0.23 0.17 0.15 0.16 0.16 0.20 0.26 0.33 0.49 0.73 1.02 1.30 1.52 1.71 1.92 2.05 2.07 2.05 2.02 2.01 1.94 1.91 1.87
0.47 0.39 0.40 0.35 0.27 0.28 0.31 0.37 0.47 0.47 0.43 0.39 0.22 0.27 0.36 0.33 0.33 0.30 0.26 0.24 0.23 0.22 0.21 0.22 0.24 0.30 0.38 0.42 0.56 0.74 0.91 1.20 1.38 1.49 1.61 1.80 1.94 1.99 2.01 1.99 1.99 1.98 1.95 1.85
0.39 0.34 0.28 0.24 0.26 0.26 0.30 0.47 0.68 0.72 0.65 0.46 0.24 0.36 0.45 0.38 0.30 0.25 0.24 0.24 0.23 0.26 0.29 0.29 0.39 0.53 0.62 0.66 0.74 0.89 0.96 1.13 1.24 1.30 1.38 1.53 1.60 1.66 1.72 1.71 1.67 1.62 1.57 1.56
0.36 0.36 0.25 0.21 0.23 0.25 0.26 0.37 0.65 0.74 0.62 0.44 0.35 0.56 0.56 0.39 0.32 0.28 0.26 0.24 0.27 0.37 0.44 0.55 0.68 0.78 0.85 0.86 0.83 0.84 0.97 1.01 0.99 1.02 1.04 1.16 1.25 1.32 1.39 1.39 1.38 1.41 1.45 1.45
0.32 0.32 0.20 0.14 0.14 0.19 0.23 0.25 0.31 0.47 0.42 0.42 0.44 0.68 0.66 0.40 0.33 0.30 0.28 0.29 0.36 0.51 0.69 0.91 1.09 1.19 1.27 1.18 0.99 0.85 0.85 0.84 0.82 0.87 0.92 0.97 1.06 1.11 1.14 1.18 1.13 1.23 1.27 1.25
0.24 0.30 0.24 0.15 0.14 0.15 0.21 0.28 0.35 0.54 0.67 0.65 0.61 0.77 0.74 0.55 0.44 0.37 0.39 0.50 0.66 0.85 1.12 1.37 1.61 1.73 1.70 1.51 1.24 0.95 0.80 0.75 0.72 0.74 0.80 0.87 0.91 0.92 0.91 0.96 0.91 0.97 1.06 1.05
0.18 0.29 0.26 0.19 0.18 0.20 0.23 0.35 0.43 0.55 0.62 0.80 0.92 0.99 0.80 0.73 0.67 0.64 0.71 0.89 1.11 1.37 1.55 1.69 1.84 1.88 1.63 1.44 1.19 0.93 0.78 0.80 0.80 0.80 0.80 0.81 0.78 0.77 0.76 0.75 0.73 0.76 0.82 0.81
0.15 0.24 0.28 0.18 0.16 0.20 0.34 0.51 0.67 0.92 0.85 0.81 1.03 1.11 0.82 0.76 0.82 0.86 0.97 1.02 1.12 1.28 1.30 1.38 1.43 1.38 1.34 1.30 1.12 0.96 0.86 0.87 0.90 0.89 0.88 0.80 0.72 0.69 0.69 0.66 0.59 0.61 0.59 0.58
0.20 0.33 0.38 0.33 0.36 0.40 0.48 0.50 0.56 0.71 0.79 0.85 1.07 1.16 0.76 0.70 0.74 0.89 1.06 1.12 1.18 1.21 1.12 1.12 1.12 1.13 1.16 1.13 1.01 0.99 0.96 0.97 0.97 0.94 0.84 0.76 0.69 0.61 0.56 0.50 0.46 0.53 0.55 0.61
0.20 0.34 0.43 0.51 0.51 0.52 0.58 0.54 0.46 0.54 0.81 0.88 1.04 1.02 0.81 0.74 0.73 0.82 0.95 1.04 1.00 0.94 0.89 0.89 0.93 0.96 1.04 1.03 0.99 0.94 0.89 0.94 1.04 1.08 0.98 0.87 0.76 0.65 0.60 0.52 0.48 0.47 0.51 0.57
0.13 0.15 0.18 0.20 0.21 0.29 0.49 0.59 0.56 0.52 0.58 0.81 0.82 0.72 0.65 0.60 0.65 0.68 0.72 0.68 0.60 0.57 0.58 0.63 0.66 0.65 0.63 0.60 0.63 0.66 0.73 0.84 0.99 1.12 1.10 0.95 0.77 0.64 0.58 0.54 0.47 0.46 0.47 0.48
0.07 0.08 0.08 0.09 0.10 0.19 0.33 0.44 0.45 0.41 0.41 0.49 0.56 0.54 0.44 0.41 0.46 0.47 0.48 0.44 0.40 0.37 0.35 0.34 0.34 0.35 0.35 0.32 0.29 0.29 0.37 0.52 0.77 1.03 1.01 0.79 0.61 0.49 0.45 0.45 0.45 0.41 0.40 0.45
0.03 0.06 0.09 0.10 0.08 0.15 0.36 0.40 0.37 0.37 0.29 0.29 0.35 0.35 0.30 0.32 0.37 0.38 0.40 0.41 0.31 0.24 0.23 0.23 0.22 0.21 0.21 0.20 0.19 0.20 0.28 0.40 0.57 0.68 0.65 0.56 0.45 0.43 0.46 0.48 0.43 0.42 0.41 0.42
0.02 0.05 0.10 0.11 0.13 0.37 0.63 0.55 0.46 0.42 0.24 0.16 0.17 0.19 0.21 0.30 0.32 0.33 0.31 0.31 0.30 0.20 0.14 0.13 0.13 0.13 0.15 0.16 0.20 0.24 0.28 0.35 0.40 0.43 0.43 0.39 0.37 0.38 0.41 0.42 0.41 0.47 0.51 0.49
0.05 0.13 0.17 0.18 0.25 0.47 0.58 0.52 0.51 0.50 0.34 0.15 0.12 0.12 0.11 0.11 0.13 0.14 0.15 0.13 0.12 0.08 0.05 0.05 0.04 0.04 0.05 0.06 0.07 0.09 0.11 0.13 0.15 0.14 0.15 0.15 0.15 0.17 0.19 0.21 0.27 0.38 0.44 0.47
0.09 0.15 0.21 0.23 0.32 0.46 0.39 0.24 0.26 0.39 0.45 0.13 0.07 0.06 0.04 0.02 0.05 0.07 0.08 0.09 0.05 0.02 0.02 0.02 0.01 0.02 0.02 0.01 0.01 0.02 0.02 0.03 0.03 0.03 0.03 0.04 0.04 0.05 0.06 0.09 0.13 0.19 0.22 0.27
0.08 0.14 0.19 0.25 0.44 0.64 0.47 0.26 0.24 0.41 0.41 0.09 0.04 0.02 0.01 0.01 0.01 0.03 0.06 0.07 0.05 0.03 0.03 0.02 0.02 0.02 0.02 0.02 0.01 0.02 0.03 0.03 0.02 0.03 0.02 0.02 0.02 0.02 0.03 0.04 0.06 0.10 0.12 0.17
0.09 0.14 0.19 0.32 0.61 0.83 0.65 0.42 0.36 0.27 0.11 0.04 0.01 0.00 0.00 0.00 0.01 0.01 0.03 0.04 0.03 0.03 0.02 0.02 0.01 0.01 0.02 0.02 0.02 0.02 0.02 0.02 0.02 0.03 0.02 0.02 0.02 0.03 0.03 0.03 0.05 0.07 0.08 0.10
0.06 0.07 0.11 0.24 0.47 0.53 0.47 0.36 0.25 0.18 0.07 0.01 0.00 0.00 0.00 0.01 0.00 0.01 0.02 0.02 0.02 0.02 0.01 0.01 0.01 0.01 0.01 0.01 0.01 0.01 0.02 0.02 0.02 0.02 0.02 0.02 0.03 0.03 0.04 0.05 0.06 0.06 0.07 0.09
0.04 0.03 0.04 0.05 0.11 0.16 0.19 0.19 0.12 0.09 0.05 0.01 0.00 0.00 0.00 0.00 0.00 0.01 0.01 0.03 0.02 0.01 0.01 0.01 0.01 0.01 0.01 0.01 0.01 0.01 0.02 0.02 0.02 0.02 0.02 0.02 0.03 0.03 0.04 0.06 0.07 0.08 0.08 0.09
0.04 0.05 0.06 0.06 0.04 0.04 0.08 0.10 0.09 0.05 0.02 0.01 0.00 0.00 0.00 0.00 0.00 0.00 0.01 0.03 0.02 0.02 0.01 0.01 0.01 0.01 0.01 0.01 0.01 0.01 0.01 0.01 0.01 0.01 0.01 0.01 0.02 0.03 0.04 0.04 0.04 0.06 0.06 0.09
0.01 0.03 0.05 0.06 0.03 0.03 0.05 0.05 0.04 0.03 0.01 0.00 0.00 0.00 0.00 0.00 0.00 0.00 0.01 0.02 0.03 0.03 0.01 0.01 0.01 0.01 0.01 0.01 0.01 0.00 0.00 0.01 0.01 0.01 0.01 0.01 0.02 0.03 0.04 0.04 0.04 0.05 0.07 0.11